Greenville Downtown, SC

10:29 AM EDT on June 29, 2017 (GMT -0400)
Greenville Downtown

Weather History for KGMU - February, 2014

Change the Weather History Date:

Sunday, February 2, 2014

  Actual Average Record
Temperature  
Mean Temperature 52 °F -  
Max Temperature 66 °F 51 °F 71 °F (2012)
Min Temperature 37 °F 34 °F 23 °F (1993)
Degree Days  
Heating Degree Days 14    
Growing Degree Days 2 (Base 50)    
Moisture  
Dew Point 43 °F    
Average Humidity 83    
Maximum Humidity 100    
Minimum Humidity 52    
Precipitation  
Precipitation 0.00 in - - ()
Sea Level Pressure  
Sea Level Pressure 30.09 in    
Wind  
Wind Speed 5 mph (SW)    
Max Wind Speed 13 mph    
Max Gust Speed -    
Visibility 6 miles    
Events Fog    
Averages and records for this station are not official NWS values.
T = Trace of Precipitation, MM = Missing Value Source: NWS Daily Summary

Daily Weather History Graph

Daily Weather History Graph

Search for Another Location

Airport or City:

Trip Planner

Search our weather history database for the weather conditions in past years. The results will help you decide how hot, cold, wet, or windy it might be!

Date:

Astronomy

Feb. 02, 2014 Rise Set
Actual Time 7:27 AM EST 5:59 PM EST
Civil Twilight 7:00 AM EST 6:26 PM EST
Nautical Twilight 6:30 AM EST 6:56 PM EST
Astronomical Twilight 6:00 AM EST 7:25 PM EST
Moon 9:02 AM EST (2/2) 9:31 PM EST (2/2)
Length of Visible Light 11h 25m
Length of Day
10h 32m
Waxing Crescent, 11% of the Moon is Illuminated
Feb 2
Waxing Crescent
Feb 6
First Quarter
Feb 14
Full
Feb 22
Last Quarter
Mar 1
New

Hourly Weather History & Observations

Time (EST) Temp. Windchill Dew Point Humidity Pressure Visibility Wind Dir Wind Speed Gust Speed Precip Events Conditions
12:53 AM 44.1 °F 42.5 °F 39.0 °F 82% 30.12 in 10.0 mi SW 3.5 mph - N/A   Clear
1:53 AM 43.0 °F 40.3 °F 37.9 °F 82% 30.11 in 10.0 mi West 4.6 mph - N/A   Clear
2:53 AM 41.0 °F 38.0 °F 37.0 °F 86% 30.11 in 10.0 mi SW 4.6 mph - N/A   Clear
3:53 AM 39.0 °F 36.8 °F 37.0 °F 93% 30.09 in 8.0 mi WSW 3.5 mph - N/A   Clear
4:53 AM 37.9 °F - 36.0 °F 93% 30.10 in 5.0 mi Calm Calm - N/A   Clear
5:27 AM 39.2 °F - 35.6 °F 87% 30.08 in 2.0 mi Calm Calm - N/A   Clear
5:38 AM 37.4 °F 34.9 °F 35.6 °F 93% 30.08 in 1.5 mi SW 3.5 mph - N/A   Clear
5:46 AM 37.4 °F 33.8 °F 35.6 °F 93% 30.08 in 1.8 mi SSW 4.6 mph - N/A   Scattered Clouds
5:50 AM 39.2 °F 35.0 °F 37.4 °F 93% 30.08 in 0.8 mi SW 5.8 mph - N/A   Mist
5:53 AM 39.0 °F 34.8 °F 37.0 °F 93% 30.09 in 0.5 mi SW 5.8 mph - N/A Fog Fog
6:06 AM 39.2 °F 35.9 °F 37.4 °F 93% 30.08 in 0.2 mi SW 4.6 mph - N/A Fog Fog
6:14 AM 39.2 °F 33.6 °F 37.4 °F 93% 30.08 in 0.2 mi SW 8.1 mph - N/A Fog Fog
6:53 AM 39.0 °F 34.0 °F 37.9 °F 96% 30.11 in 0.2 mi WSW 6.9 mph - N/A Fog Fog
7:53 AM 39.9 °F 36.7 °F 39.0 °F 97% 30.12 in 0.2 mi SW 4.6 mph - N/A Fog Fog
8:53 AM 42.1 °F 37.7 °F 41.0 °F 96% 30.15 in 0.2 mi SW 6.9 mph - N/A Fog Fog
9:07 AM 42.8 °F 36.2 °F 41.0 °F 93% 30.15 in 0.5 mi SW 12.7 mph - N/A Fog Fog
9:22 AM 42.8 °F 38.0 °F 42.8 °F 100% 30.14 in 1.2 mi SW 8.1 mph - N/A   Overcast
9:34 AM 44.6 °F 39.7 °F 44.6 °F 100% 30.15 in 2.5 mi SW 9.2 mph - N/A   Overcast
9:44 AM 44.6 °F 40.7 °F 44.6 °F 100% 30.14 in 3.0 mi SW 6.9 mph - N/A   Overcast
9:53 AM 46.0 °F 42.5 °F 44.1 °F 93% 30.15 in 4.0 mi SW 6.9 mph - N/A   Overcast
10:53 AM 48.9 °F - 45.0 °F 86% 30.15 in 7.0 mi SW 6.9 mph - N/A   Overcast
11:31 AM 53.6 °F - 46.4 °F 77% 30.14 in 9.0 mi WSW 9.2 mph - N/A   Overcast
11:53 AM 55.9 °F - 46.9 °F 72% 30.12 in 10.0 mi WSW 10.4 mph - N/A   Scattered Clouds
12:53 PM 61.0 °F - 48.0 °F 62% 30.09 in 10.0 mi SW 8.1 mph - N/A   Clear
1:53 PM 63.0 °F - 48.0 °F 58% 30.06 in 10.0 mi SSW 11.5 mph - N/A   Clear
2:53 PM 64.9 °F - 48.0 °F 54% 30.04 in 10.0 mi SSW 9.2 mph - N/A   Clear
3:53 PM 66.0 °F - 48.0 °F 52% 30.03 in 10.0 mi SW 10.4 mph - N/A   Clear
4:53 PM 64.9 °F - 48.0 °F 54% 30.03 in 10.0 mi SSW 6.9 mph - N/A   Clear
5:53 PM 61.0 °F - 48.0 °F 62% 30.05 in 10.0 mi SSW 8.1 mph - N/A   Clear
6:53 PM 57.9 °F - 48.0 °F 70% 30.05 in 10.0 mi SSW 6.9 mph - N/A   Clear
7:53 PM 55.9 °F - 48.0 °F 75% 30.05 in 10.0 mi SSW 5.8 mph - N/A   Clear
8:53 PM 54.0 °F - 48.0 °F 80% 30.05 in 10.0 mi Calm Calm - N/A   Clear
9:53 PM 55.0 °F - 48.0 °F 77% 30.02 in 10.0 mi SSE 3.5 mph - N/A   Overcast
10:53 PM 55.0 °F - 48.0 °F 77% 30.00 in 10.0 mi NNW 4.6 mph - N/A   Overcast
11:53 PM 55.0 °F - 48.9 °F 80% 29.97 in 10.0 mi Calm Calm - N/A   Overcast